Terminal Aerodrome Forecast
Issued by NWS

Home | Current Version | Previous Version | Graphics & Text | Print | Product List | Glossary On
Versions: 1 2 3 4 5 6 7 8 9 10 11 12 13 14 15 16 17 18 19 20 21 22 23 24 25 26
646
FTUS43 KBIS 111402 AAG
TAFJMS
TAF AMD
KJMS 111402Z 1114/1212 34024G35KT P6SM BKN015 OVC025
     FM111900 34017G24KT P6SM BKN025
     FM112300 34014G23KT P6SM BKN030
     FM120200 31008KT P6SM BKN020=

USA.gov is the U.S. government's official web portal to all federal, state and local government web resources and services.